Home   Weather   Sierra Vista   Past weeks

Flag for USA Past Weather in Sierra Vista, Arizona, USA — Yesterday and Last 2 Weeks

Now
53 °F

Clear.


Feels Like: 53 °F
Forecast: 41 / 58 °F
Wind: No wind

Location: Fort Huachuca

Current Time: Jan 22, 2017 at 7:50:54 pm

Latest Report: Jan 22, 2017 at 6:58 pm


Visibility: 10 mi

Pressure: 30.09 "Hg (25.46 "Hg at 1390m altitude)

Humidity: 34%

Dew Point: 25 °F

Location of Sierra VistaLocation

Past Weather in Sierra Vista — Graph

°F

Sierra Vista Temperature Yesterday

Maximum temperature yesterday: 46 °F (at 3:35 pm)
Minimum temperature yesterday: 31 °F (at 11:58 pm)
Average temperature yesterday: 41 °F

High & Low Weather Summary for the Past Weeks

 TemperatureHumidityPressure
High75 °F (Jan 9, 1:58 pm)100% (Jan 17, 7:06 am)30.44 "Hg (Jan 17, 7:06 am)
Low29 °F (Jan 22, 6:58 am)9% (Jan 12, 2:58 pm)29.50 "Hg (Jan 20, 11:58 pm)
Average48 °F56%29.99 "Hg
* Reported Jan 7 5:58 pm — Jan 22 5:58 pm, Sierra Vista, Weather by CustomWeather, © 2017

Note: Actual official high and low records may vary slightly from our data, if they occured in-between our weather recording intervals... More about our weather records

Advertising

Sierra Vista Weather History for the Previous 24 Hours

Scroll right to see more
 ConditionsComfort  
Time TempWeatherWind HumidityBarometerVisibility
5:58 pm
Sun, Jan 22
54 °FClear.No wind39%30.09 "Hg9 mi
4:58 pm59 °FSunny.No wind27%30.09 "Hg9 mi
3:58 pm59 °FSunny.3 mph25%30.09 "Hg10 mi
2:58 pm57 °FSunny.5 mph24%30.09 "Hg10 mi
1:58 pm56 °FPartly sunny.5 mph26%30.11 "Hg10 mi
12:58 pm53 °FPartly sunny.6 mph28%30.15 "Hg10 mi
12:16 pm50 °FPartly sunny.5 mph35%30.21 "Hg10 mi
11:58 am52 °FPartly sunny.No wind33%30.19 "Hg10 mi
11:30 am50 °FPartly sunny.No wind35%30.24 "Hg10 mi
10:58 am47 °FPartly sunny.No wind37%30.24 "Hg10 mi
10:36 am46 °FPassing clouds.No wind43%30.26 "Hg10 mi
9:58 am45 °FSunny.6 mph48%30.22 "Hg10 mi
8:58 am39 °FSunny.3 mph69%30.22 "Hg10 mi
7:58 am32 °FSunny.No wind84%30.22 "Hg9 mi
6:58 am29 °FClear.No wind84%30.21 "Hg10 mi
6:34 am30 °FClear.No wind80%30.20 "Hg10 mi
5:58 am30 °FPassing clouds.No wind85%30.18 "Hg10 mi
4:58 am30 °FPassing clouds.5 mph83%30.16 "Hg10 mi
3:58 am31 °FClear.No wind83%30.13 "Hg10 mi
2:58 am32 °FClear.3 mph78%30.13 "Hg10 mi
1:58 am32 °FClear.No wind80%30.13 "Hg10 mi
12:58 am33 °FClear.3 mph80%30.14 "Hg10 mi
12:39 am32 °FClear.6 mph80%30.14 "Hg10 mi
11:58 pm
Sat, Jan 21
31 °FClear.3 mph84%30.16 "Hg10 mi
11:11 pm34 °FClear.3 mph75%30.15 "Hg10 mi
10:58 pm33 °FClear.3 mph76%30.11 "Hg10 mi
10:28 pm32 °FClear.No wind80%30.13 "Hg10 mi
9:58 pm33 °FClear.3 mph73%30.09 "Hg10 mi
9:30 pm34 °FClear.3 mph75%30.09 "Hg10 mi
8:58 pm37 °FClear.8 mph64%30.04 "Hg10 mi
8:14 pm37 °FClear.9 mph60%30.06 "Hg10 mi
7:58 pm38 °FClear.9 mph57%30.01 "Hg10 mi
7:43 pm39 °FClear.8 mph52%30.04 "Hg10 mi
7:30 pm39 °FClear.9 mph52%30.02 "Hg10 mi
7:02 pm39 °FClear.13 mph52%30.00 "Hg10 mi
Weather by CustomWeather, © 2017

See weather overviewHow to use our weather pages